[[{"header":{"parameterUnit":"m.s-1","parameterCategory":1,"la1":30.2991,"la2":30.254,"lo1":-89.0895,"lo2":-89.0444,"dy":0.0017,"dx":0.0017,"nx":28,"ny":28,"refTime":"2024-04-06T03:00:00:Z","depth":0,"parameterNumber":2,"parameterNumberName":"U-component_of_WINDS"},"data":[0,0,0,0,0,0,0,0,0,0,0,0,0,0,0,0,0,0,0,0,0,0,0,0,0,0,0,0,0,0,0,0,0,0,0,0,0,0,0,0,0,0,0,0,0,0,0,0,0,0,0,0,0,0,0,0,0,0,-0.6641,-0.6641,0,-0.6624,-0.6624,-0.6623,-0.6639,-0.6639,-0.664,-0.6641,-0.6619,-0.6618,-0.6617,0,0,0,0,0,0,0,0,0,0,0,0,0,-0.6684,-0.6683,-0.6641,-0.6641,-0.6641,-0.6624,-0.6624,-0.6623,-0.6639,-0.664,-0.664,-0.6641,-0.662,-0.6618,-0.6617,0,0,0,0,0,0,0,0,0,0,0,0,0,-0.6666,-0.6683,-0.6641,-0.6646,-0.6647,-0.6624,-0.6624,-0.6623,-0.6639,-0.664,-0.6641,-0.6641,-0.662,-0.6618,-0.6617,-0.6587,0,0,-0.6611,-0.6611,0,0,0,0,0,0,0,0,-0.6667,-0.6664,-0.6646,-0.6646,-0.6646,-0.6635,-0.6631,-0.6611,-0.6638,-0.6641,-0.6641,-0.6642,-0.6623,-0.6621,-0.6616,-0.6586,-0.6585,-0.6611,-0.661,-0.6609,-0.6609,0,0,0,0,0,0,0,-0.6668,-0.6665,-0.6634,-0.6645,-0.6646,-0.6648,-0.6647,-0.6627,-0.6627,-0.6641,-0.6642,-0.664,-0.6624,-0.6618,-0.6616,-0.6584,-0.6611,-0.661,-0.6609,-0.6608,-0.6528,-0.6527,0,0,0,0,0,0,-0.6669,-0.6666,-0.6635,-0.6634,-0.6659,-0.6647,-0.6645,-0.6637,-0.6627,-0.6627,-0.664,-0.6641,-0.662,-0.6618,-0.6615,-0.6578,-0.6609,-0.6608,-0.6607,-0.6529,-0.6528,-0.6527,0,0,0,0,0,0,-0.667,-0.6666,-0.6635,-0.665,-0.6646,-0.6645,-0.6636,-0.6636,-0.663,-0.6626,-0.6626,-0.6634,-0.6621,-0.6617,-0.6594,-0.6578,-0.6607,-0.6605,-0.653,-0.6529,-0.6527,-0.6505,0,0,0,0,0,0,-0.6671,-0.6666,-0.6656,-0.665,-0.6645,-0.6615,-0.6635,-0.6635,-0.6628,-0.663,-0.662,-0.662,-0.6621,-0.6596,-0.6592,-0.6576,-0.6604,-0.6532,-0.653,-0.6528,-0.6507,-0.6503,-0.6499,0,0,0,0,0,-0.6673,-0.6649,-0.6655,-0.6651,-0.6632,-0.6614,-0.6612,-0.6615,-0.6627,-0.6615,-0.6612,-0.662,-0.6581,-0.6594,-0.6589,-0.6572,-0.6533,-0.653,-0.6528,-0.6509,-0.6504,-0.6499,0,0,0,0,0,0,-0.6651,-0.6648,-0.6655,-0.6629,-0.6622,-0.6617,-0.6603,-0.6609,-0.6598,-0.66,-0.6604,-0.6601,-0.6576,-0.6572,-0.6587,-0.6542,-0.6558,-0.6555,-0.6545,-0.654,-0.6537,-0.6537,-0.6603,0,0,0,0,0,-0.6644,-0.6631,-0.6629,-0.6606,-0.6603,-0.6603,-0.6596,-0.6599,-0.6591,-0.6588,-0.6584,-0.6575,-0.656,-0.655,-0.6537,-0.6507,-0.6505,-0.6493,-0.6489,-0.6486,-0.6482,-0.6465,-0.646,-0.6519,-0.6519,-0.6519,0,0,-0.6628,-0.6625,-0.6616,-0.6602,-0.6597,-0.6582,-0.6601,-0.6584,-0.6573,-0.6585,-0.6562,-0.6559,-0.6549,-0.6522,-0.651,-0.6518,-0.6466,-0.6483,-0.6481,-0.6478,-0.6462,-0.6457,-0.6452,-0.6517,-0.6517,-0.6518,0,0,-0.6591,-0.6588,-0.6569,-0.6564,-0.6557,-0.6557,-0.6553,-0.6547,-0.6546,-0.6524,-0.6532,-0.6519,-0.6494,-0.6487,-0.6479,-0.6441,-0.6447,-0.6437,-0.6415,-0.6398,-0.6394,-0.6389,-0.6374,-0.6369,-0.6434,-0.6433,-0.6433,0,-0.6572,-0.6551,-0.6558,-0.6541,-0.6534,-0.6546,-0.6526,-0.652,-0.6508,-0.6503,-0.6512,-0.6482,-0.6476,-0.6447,-0.6438,-0.6433,-0.6426,-0.6437,-0.6394,-0.639,-0.6386,-0.6371,-0.6366,-0.6432,-0.6432,-0.6432,-0.6433,0,-0.6527,-0.6512,-0.6497,-0.6487,-0.6478,-0.646,-0.6463,-0.6453,-0.6458,-0.6457,-0.6434,-0.6429,-0.6414,-0.6408,-0.6411,-0.6379,-0.6384,-0.6394,-0.641,-0.6379,-0.6365,-0.636,-0.643,-0.6431,-0.6431,-0.6431,0,0,-0.6473,-0.6469,-0.6463,-0.6458,-0.6452,-0.644,-0.6422,-0.6409,-0.64,-0.6392,-0.6375,-0.6355,-0.6365,-0.6357,-0.636,-0.6346,-0.6314,-0.6357,-0.6357,-0.6348,-0.6276,-0.6267,-0.626,-0.6319,-0.6318,-0.6317,-0.6276,0,-0.6435,-0.6404,-0.6411,-0.638,-0.6366,-0.6379,-0.6363,-0.6356,-0.6356,-0.6343,-0.6342,-0.6327,-0.6341,-0.6336,-0.6323,-0.6321,-0.6299,-0.6324,-0.6302,-0.6301,-0.6302,-0.6254,-0.6244,-0.6205,-0.6271,-0.627,-0.627,0,-0.6385,-0.6376,-0.6345,-0.6341,-0.6335,-0.6321,-0.631,-0.6298,-0.6291,-0.6291,-0.6283,-0.629,-0.627,-0.6289,-0.6261,-0.6278,-0.627,-0.6267,-0.6266,-0.6262,-0.6282,-0.6246,-0.6193,-0.6186,-0.6261,-0.6262,-0.6263,0,-0.6347,-0.6328,-0.6306,-0.6302,-0.6297,-0.6287,-0.6284,-0.6279,-0.627,-0.626,-0.6255,-0.6243,-0.6235,-0.6225,-0.6227,-0.624,-0.6199,-0.6217,-0.6197,-0.6197,-0.6185,-0.6185,-0.6128,-0.6184,-0.6184,-0.6184,-0.6184,0,-0.6302,-0.6281,-0.6289,-0.6276,-0.6253,-0.6261,-0.6238,-0.6236,-0.6231,-0.6217,-0.6228,-0.6214,-0.6219,-0.6205,-0.6206,-0.6183,-0.618,-0.6178,-0.6179,-0.6176,-0.6176,-0.6169,-0.617,-0.6182,-0.6183,-0.6183,-0.6183,0,-0.6254,-0.6259,-0.6236,-0.6234,-0.6233,-0.6217,-0.6214,-0.6201,-0.6203,-0.6184,-0.618,-0.6181,-0.6166,-0.6168,-0.615,-0.6151,-0.6121,-0.6126,-0.6123,-0.6123,-0.6102,-0.6103,-0.6036,-0.6027,-0.6091,-0.609,-0.609,0,-0.6224,-0.6209,-0.6206,-0.6198,-0.6195,-0.6181,-0.6174,-0.6181,-0.6172,-0.6163,-0.6151,-0.6137,-0.6125,-0.6099,-0.6097,-0.6083,-0.6086,-0.6064,-0.6084,-0.6082,-0.6083,-0.6083,-0.6081,-0.6059,-0.6058,-0.6058,-0.6057,0,-0.6169,-0.6172,-0.6161,-0.6151,-0.6142,-0.6134,-0.6127,-0.6119,-0.6126,-0.6115,-0.61,-0.6091,-0.6074,-0.6059,-0.6046,-0.6042,-0.605,-0.6051,-0.6045,-0.6041,-0.604,-0.6038,-0.611,-0.6052,-0.6053,-0.6053,-0.6053,-0.6053,-0.6127,-0.6114,-0.611,-0.6098,-0.6094,-0.6087,-0.6075,-0.6075,-0.6063,-0.605,-0.6055,-0.6037,-0.6031,-0.6015,-0.601,-0.5995,-0.6003,-0.5995,-0.5992,-0.599,-0.5986,-0.6045,-0.5993,-0.5993,-0.5993,-0.5993,-0.5994,0,-0.607,-0.6069,-0.6058,-0.6048,-0.6038,-0.605,-0.6043,-0.6033,-0.6017,-0.6012,-0.6001,-0.5983,-0.5969,-0.5967,-0.5953,-0.5942,-0.5945,-0.5937,-0.5937,-0.5936,-0.5981,-0.5986,-0.5935,-0.5935,-0.5935,-0.5935,-0.5935,-0.5935,-0.604,-0.6018,-0.6021,-0.5997,-0.5996,-0.5979,-0.5974,-0.5968,-0.5963,-0.5943,-0.5932,-0.5932,-0.5927,-0.5914,-0.5901,-0.59,-0.5894,-0.5885,-0.5885,-0.5927,-0.5933,-0.5938,-0.5943,-0.5884,-0.5884,-0.5841,-0.5841,-0.584]},{"header":{"parameterUnit":"m.s-1","parameterCategory":1,"la1":30.2991,"la2":30.254,"lo1":-89.0895,"lo2":-89.0444,"dy":0.0017,"dx":0.0017,"nx":28,"ny":28,"refTime":"2024-04-06T03:00:00:Z","depth":0,"parameterNumber":3,"parameterNumberName":"V-component_of_WINDS"},"data":[0,0,0,0,0,0,0,0,0,0,0,0,0,0,0,0,0,0,0,0,0,0,0,0,0,0,0,0,0,0,0,0,0,0,0,0,0,0,0,0,0,0,0,0,0,0,0,0,0,0,0,0,0,0,0,0,0,0,-1.2928,-1.2927,0,-1.287,-1.287,-1.2869,-1.2864,-1.2865,-1.2865,-1.2866,-1.2806,-1.2804,-1.2802,0,0,0,0,0,0,0,0,0,0,0,0,0,-1.3033,-1.3031,-1.2928,-1.2927,-1.2927,-1.2871,-1.287,-1.2869,-1.2864,-1.2865,-1.2865,-1.2866,-1.2807,-1.2804,-1.2802,0,0,0,0,0,0,0,0,0,0,0,0,0,-1.2982,-1.303,-1.2928,-1.2917,-1.2916,-1.2871,-1.287,-1.2869,-1.2864,-1.2865,-1.2866,-1.2866,-1.2808,-1.2804,-1.2801,-1.2763,0,0,-1.2791,-1.279,0,0,0,0,0,0,0,0,-1.2985,-1.2978,-1.292,-1.2918,-1.2916,-1.2875,-1.2885,-1.2833,-1.2863,-1.2883,-1.2866,-1.2867,-1.2828,-1.2823,-1.281,-1.276,-1.2757,-1.2791,-1.2789,-1.2788,-1.2787,0,0,0,0,0,0,0,-1.2989,-1.2981,-1.2905,-1.2919,-1.2917,-1.2915,-1.2909,-1.2875,-1.2851,-1.2882,-1.2881,-1.2875,-1.2827,-1.2814,-1.2809,-1.2756,-1.2791,-1.2788,-1.2786,-1.2785,-1.267,-1.2669,0,0,0,0,0,0,-1.2994,-1.2984,-1.2907,-1.2904,-1.2954,-1.2912,-1.2906,-1.2888,-1.2852,-1.2847,-1.2874,-1.2875,-1.2819,-1.2813,-1.2807,-1.2758,-1.2788,-1.2785,-1.2783,-1.2671,-1.267,-1.2669,0,0,0,0,0,0,-1.2997,-1.2988,-1.2909,-1.2944,-1.2933,-1.291,-1.2889,-1.2886,-1.2872,-1.2846,-1.2841,-1.2864,-1.2819,-1.2811,-1.2773,-1.2756,-1.2783,-1.278,-1.2672,-1.2671,-1.2669,-1.2661,0,0,0,0,0,0,-1.3,-1.2988,-1.2974,-1.2943,-1.2932,-1.2877,-1.2888,-1.2884,-1.2867,-1.2867,-1.2835,-1.2831,-1.2819,-1.2778,-1.277,-1.2752,-1.2778,-1.2674,-1.2672,-1.267,-1.2663,-1.2659,-1.2657,0,0,0,0,0,-1.3003,-1.2974,-1.2973,-1.2964,-1.2913,-1.2876,-1.287,-1.2857,-1.2865,-1.285,-1.2833,-1.2832,-1.276,-1.2774,-1.2765,-1.2746,-1.2675,-1.2672,-1.267,-1.2664,-1.266,-1.2657,0,0,0,0,0,0,-1.3003,-1.297,-1.2968,-1.2928,-1.2905,-1.2875,-1.2856,-1.2853,-1.2827,-1.2828,-1.2814,-1.2806,-1.2769,-1.2754,-1.2771,-1.2706,-1.2718,-1.2714,-1.2717,-1.2713,-1.271,-1.2713,-1.2775,0,0,0,0,0,-1.2998,-1.2971,-1.2944,-1.2911,-1.29,-1.288,-1.2863,-1.2856,-1.2831,-1.2821,-1.2801,-1.2777,-1.2749,-1.273,-1.2703,-1.2661,-1.2654,-1.2643,-1.264,-1.2638,-1.2634,-1.2609,-1.2604,-1.266,-1.266,-1.266,0,0,-1.2988,-1.2967,-1.2951,-1.2911,-1.2892,-1.2863,-1.2872,-1.2842,-1.2821,-1.2816,-1.2779,-1.2764,-1.2736,-1.2695,-1.2676,-1.2682,-1.2617,-1.2635,-1.2633,-1.263,-1.2606,-1.2601,-1.2596,-1.2659,-1.2659,-1.2659,0,0,-1.2955,-1.2937,-1.2907,-1.2887,-1.2859,-1.2846,-1.2839,-1.2809,-1.2799,-1.2761,-1.2757,-1.2732,-1.2683,-1.2663,-1.2647,-1.2605,-1.2603,-1.2597,-1.258,-1.2556,-1.2552,-1.2548,-1.2531,-1.2526,-1.2593,-1.2593,-1.2593,0,-1.2945,-1.2903,-1.2891,-1.2861,-1.2843,-1.2839,-1.2807,-1.279,-1.2753,-1.2741,-1.2747,-1.2686,-1.2667,-1.2621,-1.2611,-1.2599,-1.2589,-1.26,-1.2553,-1.2549,-1.2545,-1.2529,-1.2524,-1.2593,-1.2593,-1.2593,-1.2593,0,-1.2892,-1.2863,-1.2843,-1.2807,-1.2787,-1.2757,-1.274,-1.2721,-1.2715,-1.2701,-1.2662,-1.2639,-1.2607,-1.2596,-1.259,-1.2549,-1.2552,-1.2557,-1.2568,-1.2539,-1.2524,-1.2518,-1.2592,-1.2592,-1.2592,-1.2592,0,0,-1.2856,-1.2815,-1.2807,-1.2791,-1.2759,-1.2736,-1.2705,-1.2673,-1.2656,-1.2632,-1.2605,-1.2564,-1.2567,-1.2549,-1.2541,-1.252,-1.2487,-1.2526,-1.2526,-1.2518,-1.2438,-1.2434,-1.2427,-1.2486,-1.2485,-1.2484,-1.244,0,-1.2818,-1.2763,-1.2751,-1.2703,-1.2675,-1.2671,-1.2644,-1.2621,-1.2607,-1.2581,-1.2566,-1.2537,-1.2545,-1.2533,-1.2513,-1.2495,-1.247,-1.2499,-1.2459,-1.2458,-1.2465,-1.242,-1.2415,-1.2375,-1.2434,-1.2433,-1.2433,0,-1.2766,-1.2739,-1.2689,-1.2659,-1.2647,-1.2623,-1.2592,-1.2568,-1.2542,-1.2533,-1.2512,-1.2506,-1.2474,-1.2488,-1.2442,-1.2461,-1.2445,-1.2434,-1.2432,-1.2426,-1.2442,-1.2411,-1.2362,-1.2355,-1.2423,-1.2424,-1.2425,0,-1.2742,-1.2694,-1.2657,-1.2644,-1.2609,-1.2592,-1.2577,-1.2552,-1.2533,-1.2506,-1.2493,-1.2464,-1.2447,-1.2423,-1.2409,-1.2421,-1.2364,-1.2377,-1.2354,-1.2355,-1.2341,-1.2342,-1.2287,-1.2334,-1.2334,-1.2334,-1.2334,0,-1.2699,-1.2668,-1.2646,-1.2623,-1.2588,-1.2575,-1.254,-1.2525,-1.2502,-1.2476,-1.2471,-1.2446,-1.243,-1.2403,-1.2392,-1.2354,-1.2347,-1.2338,-1.2335,-1.2338,-1.2338,-1.2325,-1.2327,-1.2332,-1.2333,-1.2333,-1.2333,0,-1.2666,-1.265,-1.2609,-1.258,-1.2572,-1.2547,-1.2521,-1.2499,-1.2485,-1.2452,-1.2443,-1.2422,-1.239,-1.2374,-1.2334,-1.2327,-1.2284,-1.2284,-1.2292,-1.229,-1.2268,-1.227,-1.2201,-1.219,-1.2246,-1.2246,-1.2246,0,-1.2639,-1.2615,-1.2582,-1.2564,-1.2549,-1.252,-1.2501,-1.2487,-1.2467,-1.2435,-1.2416,-1.2383,-1.2356,-1.2305,-1.2286,-1.2255,-1.2253,-1.2231,-1.2248,-1.2251,-1.225,-1.2251,-1.2248,-1.2227,-1.2227,-1.2226,-1.2226,0,-1.2592,-1.2585,-1.2557,-1.2527,-1.2504,-1.2479,-1.2455,-1.244,-1.2423,-1.24,-1.2367,-1.2346,-1.2305,-1.2273,-1.2241,-1.2225,-1.2221,-1.2221,-1.2214,-1.2215,-1.222,-1.2215,-1.2282,-1.2222,-1.2222,-1.2223,-1.2223,-1.2223,-1.2559,-1.2537,-1.251,-1.248,-1.246,-1.2437,-1.2414,-1.2397,-1.237,-1.2335,-1.2329,-1.2293,-1.2267,-1.2223,-1.2206,-1.2178,-1.2183,-1.2173,-1.217,-1.2167,-1.2165,-1.2226,-1.2173,-1.2173,-1.2173,-1.2173,-1.2173,0,-1.251,-1.2493,-1.2465,-1.2431,-1.2406,-1.2406,-1.2379,-1.2359,-1.2327,-1.2303,-1.2277,-1.2238,-1.2206,-1.2185,-1.2152,-1.2134,-1.2132,-1.2126,-1.2126,-1.2122,-1.2164,-1.2172,-1.2128,-1.2128,-1.2128,-1.2128,-1.2128,-1.2128,-1.2481,-1.2443,-1.2433,-1.2385,-1.2368,-1.2333,-1.2317,-1.2295,-1.2276,-1.2233,-1.2207,-1.2193,-1.2169,-1.2135,-1.2106,-1.21,-1.2088,-1.2081,-1.2075,-1.2114,-1.2119,-1.2123,-1.2131,-1.2079,-1.2079,-1.2036,-1.2035,-1.2035]}]]